GW2960 Weather Reports


time (UTC)temp
F
wind
direction
speed
knots
gust
knots
rain 1hr
in
rain 24hr
in
rain mn
in
humidity
%
barometer
mb
20260505101512 77 82 4.3 10.4 0.00 0.49 0.00 87 1013.2
20260505100039 77 113 6.1 10.4 0.00 0.49 0.00 87 1013.3
20260505094540 76 106 5.2 8.7 0.00 0.49 0.00 88 1013.0
20260505093005 77 96 5.2 9.6 0.00 0.49 0.00 89 1012.9
20260505091530 76 80 4.3 9.6 0.00 0.49 0.00 88 1013.0
20260505090120 76 70 2.6 8.7 0.00 0.49 0.00 88 1012.7
20260505084612 76 51 4.3 9.6 0.00 0.50 0.00 88 1012.8
20260505083023 76 96 6.1 9.6 0.00 0.50 0.00 87 1012.5
20260505081557 76 80 6.1 10.4 0.00 0.50 0.00 87 1012.8
20260505080025 76 77 5.2 11.3 0.00 0.50 0.00 87 1012.8
20260505074518 76 59 4.3 11.3 0.00 0.85 0.00 87 1013.1
20260505073051 76 46 3.5 12.2 0.00 0.85 0.00 87 1013.2
20260505071506 76 109 4.3 12.2 0.00 0.85 0.00 88 1013.3
20260505070039 76 52 4.3 11.3 0.00 0.85 0.00 89 1013.2
20260505064535 76 17 4.3 9.6 0.00 0.85 0.00 89 1013.3
20260505063101 76 82 3.5 9.6 0.00 0.85 0.00 89 1013.7
20260505061530 76 65 2.6 7.8 0.00 0.85 0.00 89 1013.9
20260505054557 75 49 3.5 10.4 0.00 0.85 0.00 88 1013.7
20260505053022 76 78 4.3 10.4 0.00 0.85 0.00 88 1014.2
20260505051549 75 48 5.2 9.6 0.00 0.85 0.00 88 1014.3
20260505041507 76 71 5.2 13.0 0.00 0.85 0.00 89 1014.8
20260505040033 76 105 6.1 12.2 0.00 0.85 0.00 89 1014.7
20260505034523 76 64 4.3 12.2 0.00 0.85 0.85 89 1014.9
20260505033055 76 46 4.3 15.6 0.00 0.85 0.85 89 1014.7
20260505031525 76 72 8.7 14.8 0.00 0.85 0.85 88 1014.6
20260505030114 76 81 6.1 13.0 0.00 0.85 0.85 87 1014.6
20260505024504 76 85 7.0 11.3 0.00 0.85 0.85 87 1014.8
20260505023027 76 92 5.2 13.0 0.02 0.85 0.85 87 1014.7
20260505021553 75 84 8.7 15.6 0.08 0.85 0.85 87 1014.6
20260505020032 75 59 7.8 15.6 0.09 0.85 0.85 89 1014.9
20260505014531 76 66 7.0 14.8 0.09 0.85 0.85 90 1014.6
20260505013049 75 76 4.3 14.8 0.06 0.82 0.83 90 1014.6
20260505011506 76 102 7.0 13.0 0.00 0.76 0.76 88 1014.5
20260505010041 77 122 4.3 13.0 0.00 0.76 0.76 87 1014.4
20260505004547 77 109 6.1 14.8 0.00 0.76 0.76 85 1014.1
20260505003009 78 98 7.0 13.9 0.00 0.76 0.76 80 1014.0
20260505001527 78 81 7.8 13.9 0.00 0.76 0.76 79 1013.9
20260505000059 78 71 7.0 14.8 0.00 0.76 0.76 79 1014.0
20260504234551 78 126 7.8 17.4 0.00 0.79 0.76 78 1013.9
20260504233018 78 60 6.1 15.6 0.00 0.79 0.76 80 1013.8
20260504231535 78 63 8.7 14.8 0.00 0.79 0.76 79 1013.7
20260504230002 78 54 7.8 15.6 0.00 0.79 0.76 79 1013.6
20260504224503 78 70 7.8 14.8 0.00 0.81 0.76 78 1013.5
20260504223032 78 73 9.6 17.4 0.00 0.81 0.76 78 1013.6
20260504221552 78 109 7.8 13.0 0.00 0.81 0.76 78 1013.7
20260504220013 79 84 5.2 14.8 0.00 0.81 0.76 78 1013.6
20260504214511 79 122 7.0 13.9 0.00 0.81 0.76 77 1013.6
20260504213044 79 131 7.8 15.6 0.00 0.81 0.76 78 1013.5
20260504211518 79 48 7.8 16.5 0.00 0.81 0.76 79 1013.5
20260504210046 78 109 7.0 16.5 0.00 0.81 0.76 79 1013.8
20260504204546 78 53 8.7 17.4 0.00 0.81 0.76 79 1013.8
20260504203007 78 24 7.8 17.4 0.00 0.81 0.76 79 1013.6
20260504201537 79 90 7.8 15.6 0.00 0.81 0.76 79 1014.0
20260504200006 78 67 7.8 18.2 0.00 0.81 0.76 79 1013.9
20260504194515 79 108 7.8 14.8 0.00 0.81 0.76 79 1014.1
20260504193039 79 71 9.6 20.9 0.00 0.81 0.76 80 1014.2
20260504191511 78 85 8.7 20.0 0.00 0.81 0.76 80 1014.6
20260504190029 78 85 7.8 20.0 0.00 0.81 0.76 79 1014.8
20260504184542 79 99 8.7 16.5 0.00 0.81 0.76 78 1015.0
20260504183058 79 26 8.7 20.9 0.00 0.81 0.76 78 1015.0
20260504181517 79 67 9.6 16.5 0.00 0.81 0.76 78 1015.0
20260504180054 79 71 8.7 18.2 0.00 0.81 0.76 78 1015.0
20260504174553 79 111 6.1 18.2 0.00 0.82 0.76 80 1015.2
20260504173020 78 107 7.8 17.4 0.00 0.82 0.76 82 1015.2
20260504171549 77 57 7.8 16.5 0.33 0.82 0.76 85 1015.4